This demonstration page uses our WeatherBlox Daily Observations layout. Learn more.

Left ArrowRight Arrow

34.02893, -84.19858

Hourly Observations for April 4, 2019

Temp ( °F °C ) Dew Point ( °F °C ) Humidity (%) Winds ( mph kmh ) Pressure ( in mb ) Visibility ( mi km ) Precip ( " mm )
12:53 am 00:53 Clear 54 12.2 33 0.6 45 45 Calm 30.32 1027 10 16 0.00 0.00
1:53 am 01:53 Clear 52 11.1 37 2.8 57 57 Calm 30.32 1027 10 16 0.00 0.00
2:53 am 02:53 Clear 50 10 35 1.7 57 57 Calm 30.31 1026 10 16 0.00 0.00
3:53 am 03:53 Clear 47 8.3 36 2.2 66 66 Calm 30.31 1026 10 16 0.00 0.00
4:53 am 04:53 Clear 46 7.8 37 2.8 71 71 Calm 30.30 1026 10 16 0.00 0.00
5:53 am 05:53 Clear 43 6.1 37 2.8 80 80 Calm 30.32 1027 10 16 0.00 0.00
6:53 am 06:53 Clear 43 6.1 38 3.3 82 82 Calm 30.32 1027 10 16 0.00 0.00
7:53 am 07:53 Sunny 45 7.2 40 4.4 83 83 Calm 30.33 1027 10 16 0.00 0.00
8:53 am 08:53 Sunny 54 12.2 44 6.7 69 69 VRB 6 9 30.34 1027 10 16 0.00 0.00
9:53 am 09:53 Sunny 59 15 45 7.2 60 60 S 5 7 30.32 1027 10 16 0.00 0.00
10:53 am 10:53 Sunny 64 17.8 44 6.7 48 48 SSE 7 11 30.33 1027 10 16 0.00 0.00
11:53 am 11:53 Sunny 65 18.3 42 5.6 43 43 SSE 9 15 30.32 1027 10 16 0.00 0.00
12:53 pm 12:53 Sunny 67 19.4 40 4.4 37 37 SSE 10 17 30.29 1026 10 16 0.00 0.00
1:53 pm 13:53 Sunny 68 20 39 3.9 35 35 VRB 6 9 30.27 1025 10 16 0.00 0.00
2:53 pm 14:53 Mostly Sunny 68 20 40 4.4 36 36 VRB 7 11 30.24 1024 10 16 0.00 0.00
3:53 pm 15:53 Sunny 67 19.4 40 4.4 37 37 SE 9 15 30.21 1023 10 16 0.00 0.00
4:53 pm 16:53 Sunny 67 19.4 41 5 39 39 SE 9 15 30.20 1023 7 11 0.00 0.00
5:53 pm 17:53 Hazy 67 19.4 41 5 39 39 SSE 7 11 30.19 1022 6 10 0.00 0.00
6:53 pm 18:53 Sunny 66 18.9 41 5 40 40 SE 8 13 30.19 1022 9 14 0.00 0.00
7:53 pm 19:53 Cloudy with Light Rain 65 18.3 42 5.6 43 43 VRB 5 7 30.18 1022 9 14 0.00 0.03
8:53 pm 20:53 Cloudy with Light Rain 58 14.4 49 9.4 72 72 Calm 30.18 1022 10 16 0.01 0.25
9:53 pm 21:53 Cloudy 56 13.3 51 10.6 84 84 Calm 30.16 1021 10 16 0.03 0.76
10:53 pm 22:53 Cloudy 58 14.4 47 8.3 67 67 Calm 30.16 1021 10 16 0.01 0.25
11:53 pm 23:53 Cloudy with Light Rain 55 12.8 49 9.4 80 80 VRB 3 6 30.16 1021 8 13 0.00 0.03

Powered by AerisWeather